SCP
0 0 0 1 1 1 0 1 1 1 0 0 0 0 0 0 0 1 1 1 1 1 0 0 0 0 0 0 0 0 0 0 0 0 0 0 0 0 0 0 0 0 0
0 0 0 0 1 1 0 1 1 1 0 0 0 0 0 0 0 0 1 1 1 0 0 0 0 0 0 0 0 0 0 0 0 0 0 0 0 0 0 0 0 0 0
0 0 0 0 0 0 0 1 1 1 0 0 0 0 0 0 0 0 1 1 1 0 0 0 0 0 0 0 0 0 0 0 0 0 0 0 0 0 0 0 0 0 0
0 0 0 0 0 0 0 1 1 0 0 0 0 0 0 0 0 0 1 1 0 0 0 0 0 0 0 0 0 0 0 0 0 0 0 0 0 0 0 0 0 0 0
0 0 0 0 0 0 0 0 0 0 0 0 0 0 0 0 0 0 0 0 0 0 0 0 0 0 0 0 0 0 0 0 0 0 0 0 0 0 0 0 0 0 0
0 0 1 1 0 0 0 0 0 0 0 0 0 0 0 0 0 0 0 0 0 0 0 0 0 0 0 0 0 0 0 0 0 0 0 0 0 0 0 0 0 0 0
0 0 0 0 0 0 0 0 0 0 0 0 0 0 0 0 0 0 0 0 0 0 0 0 0 0 0 0 0 0 0 0 0 0 0 0 0 0 0 0 0 0 0
0 0 0 0 0 0 0 0 0 0 0 0 0 0 0 0 0 0 0 0 0 0 0 0 0 0 0 0 0 0 0 0 0 0 0 0 0 0 0 0 0 0 0
0 0 0 0 0 0 0 0 0 0 0 0 0 0 0 0 0 0 0 0 0 0 0 0 0 0 0 0 0 0 0 0 0 0 0 0 0 0 0 0 0 0 0
0 0 0 0 0 0 0 0 0 0 0 0 0 0 0 0 0 0 0 0 0 0 0 0 0 0 0 0 0 0 0 0 0 0 0 0 0 0 0 0 0 0 0
0 0 0 0 0 0 0 0 0 0 0 0 0 0 0 0 0 0 0 0 0 0 0 0 0 0 0 0 0 0 0 0 0 0 0 0 0 0 0 0 0 0 0
0 0 0 0 0 0 0 0 0 0 0 0 0 0 0 0 0 0 0 0 0 0 0 0 0 0 0 0 0 0 0 0 0 0 0 0 0 0 0 0 0 0 0
0 0 0 0 0 0 0 0 0 0 0 0 0 0 0 0 0 0 0 0 0 0 0 0 0 0 0 0 0 0 0 0 0 0 0 0 0 0 0 0 0 0 0
0 0 0 0 0 0 0 0 0 0 0 0 0 0 0 0 0 0 0 0 0 0 0 0 0 0 0 0 0 0 0 0 0 0 0 0 0 0 0 0 0 0 0
0 0 0 0 0 0 0 0 0 0 0 0 0 0 0 0 0 0 0 0 0 0 0 0 0 0 0 0 0 0 0 0 0 0 0 0 0 0 0 0 0 0 0
0 0 0 0 0 0 0 0 0 0 0 0 0 0 0 0 0 0 0 0 0 0 0 0 0 0 0 0 0 0 0 0 0 0 0 0 0 0 0 0 0 0 0
0 0 0 0 0 0 0 0 0 0 0 0 0 0 0 0 0 0 0 0 0 0 0 0 0 0 0 0 0 0 0 0 0 0 0 0 0 0 0 0 0 0 0
0 0 0 0 0 0 0 0 0 0 0 0 0 0 0 0 0 0 0 0 0 0 0 0 0 0 0 0 0 0 0 0 0 0 0 0 0 0 0 0 0 0 0
0 0 0 0 0 0 0 0 0 0 0 0 0 0 0 0 0 0 0 0 0 0 0 0 0 0 0 0 0 0 0 0 0 0 0 0 0 0 0 0 0 0 0
0 0 0 0 0 0 0 0 0 0 0 0 0 0 0 0 0 0 0 0 0 0 0 0 0 0 0 0 0 0 0 0 0 0 0 0 0 0 0 0 0 0 0
0 0 0 0 0 0 0 0 0 0 0 0 0 0 0 0 0 0 0 0 0 0 0 0 0 0 0 0 0 0 0 0 0 0 0 0 0 0 0 0 0 0 0
0 0 0 0 0 0 0 0 0 0 0 0 0 0 0 0 0 0 0 0 0 0 0 0 0 0 0 0 0 0 0 0 0 0 0 0 0 0 0 0 0 0 0
0 0 0 0 0 0 0 0 0 0 0 0 0 0 0 0 0 0 0 0 0 0 0 0 0 0 0 0 0 0 0 0 0 0 0 0 0 0 0 0 0 0 0
0 0 0 0 0 0 0 0 0 0 0 0 0 0 0 0 0 0 0 0 0 0 0 0 0 0 0 0 0 0 0 0 0 0 0 0 0 0 0 0 0 0 0
0 0 0 0 0 0 0 0 0 0 0 0 0 0 0 0 0 0 0 0 0 0 0 0 0 0 0 0 0 0 0 0 0 0 0 0 0 0 0 0 0 0 0
0 0 0 0 0 0 0 0 0 0 0 0 0 0 0 0 0 0 0 0 0 0 0 0 0 0 0 0 0 0 0 0 0 0 0 0 0 0 0 0 0 0 0
Wind_Speed
6 7 7 7 7 8 7 7 8 8 9 10 10 11 11 11 12 12 12 13 14 13 12 12 12 11 8 7 6 7 6 6 6 4 3 3 5 5 4 4 4 5 5
6 6 6 6 6 6 7 7 7 8 8 9 10 10 11 11 11 12 13 12 13 13 12 12 12 9 10 8 7 8 7 7 6 6 3 3 4 4 4 4 3 3 3
6 6 5 5 6 6 6 7 7 7 8 9 10 10 10 10 10 11 11 11 12 12 11 12 12 11 11 8 9 8 6 5 5 5 4 2 2 2 3 2 3 3 2
6 6 5 6 6 6 6 6 7 7 8 8 9 9 9 9 9 10 10 10 10 10 10 10 11 11 11 10 9 8 7 6 6 5 4 3 2 2 2 2 2 2 2
6 6 6 6 5 5 6 6 6 6 7 7 7 8 8 8 8 9 8 9 9 9 9 9 10 10 10 8 7 8 7 6 5 5 5 4 3 3 3 3 3 2 2
6 6 6 5 5 5 5 5 6 6 5 5 6 7 7 6 7 9 8 6 8 9 9 9 8 9 9 10 9 10 9 8 7 6 5 6 6 5 3 3 2 2 2
6 6 6 5 5 5 5 5 6 5 4 4 4 5 6 5 6 8 7 6 7 8 8 7 6 7 9 8 8 8 8 8 8 7 7 7 6 5 5 4 4 3 2
5 5 5 5 6 5 5 6 6 4 3 3 4 4 4 4 5 6 6 6 6 7 7 7 7 7 8 8 7 6 6 5 5 5 6 5 4 4 5 4 3 2 2
5 5 5 5 5 6 6 6 5 4 3 3 3 3 4 4 4 4 5 5 4 5 6 7 7 7 8 8 7 6 5 3 2 4 3 3 4 4 4 4 3 2 1
5 6 5 5 5 6 6 6 5 3 2 2 2 2 2 2 3 3 4 3 4 3 4 5 7 7 8 8 7 7 6 5 4 4 4 4 3 4 4 3 4 3 2
6 5 5 5 5 5 6 5 3 3 2 2 2 1 1 1 2 2 2 3 3 3 3 3 4 7 7 7 6 5 6 6 4 4 4 3 2 2 2 2 1 1 2
5 5 5 5 5 4 4 4 3 2 2 1 0 1 0 0 1 2 2 1 2 3 3 3 3 7 6 5 4 6 7 6 4 4 4 3 3 2 2 3 3 3 3
5 5 5 5 5 4 4 3 3 2 1 1 0 0 1 0 1 3 2 1 1 1 2 2 4 6 5 4 6 7 6 4 4 4 4 3 2 3 4 4 4 5 6
5 5 5 4 5 4 3 2 2 1 1 1 1 1 1 1 1 1 1 2 2 2 2 4 5 5 4 4 4 3 2 3 4 4 4 4 4 3 3 3 3 3 3
5 5 4 4 4 3 3 2 2 2 2 2 2 2 2 2 2 1 1 1 1 1 2 2 2 3 2 2 2 2 2 3 3 4 4 4 4 3 3 2 2 2 2
4 4 3 3 3 2 2 2 1 2 3 3 3 3 2 2 2 2 1 1 2 3 3 2 2 2 2 2 2 2 2 3 3 4 4 4 4 4 4 3 2 2 3
4 4 3 3 2 2 1 1 2 3 4 3 3 4 2 1 2 3 3 3 2 3 3 3 2 2 2 2 2 2 2 3 3 4 4 4 4 4 4 4 3 3 3
4 4 3 3 2 2 1 1 1 1 2 3 3 3 2 2 3 4 4 3 2 2 2 3 2 2 2 2 2 2 2 3 3 4 4 4 4 4 4 4 3 3 3
3 2 2 2 2 1 1 1 1 1 1 2 2 2 3 3 3 3 3 2 2 2 2 2 2 2 2 2 2 2 2 3 3 4 4 4 4 4 4 4 3 5 3
2 3 3 2 1 1 0 1 0 1 1 1 2 2 2 1 2 2 1 1 2 2 2 2 2 2 2 2 2 2 3 3 3 3 4 4 3 4 4 4 4 4 3
2 2 3 2 1 1 0 1 0 0 1 1 2 2 3 0 1 1 1 1 1 2 2 2 2 2 2 2 2 3 3 3 3 3 3 3 4 4 4 4 4 3 3
1 1 1 1 1 1 1 1 1 0 1 1 2 2 2 0 0 0 0 1 1 1 1 2 2 1 2 2 3 3 3 3 3 4 3 3 4 4 4 4 4 4 4
1 1 1 1 1 1 1 1 0 1 1 1 1 1 1 0 1 0 0 0 1 1 1 1 2 2 1 1 2 3 4 4 4 4 4 4 4 4 4 5 5 5 4
1 1 1 1 1 1 1 1 1 1 1 1 1 1 1 0 0 0 0 0 1 1 1 1 1 2 2 1 2 2 2 4 4 4 5 5 5 4 4 5 5 5 5
1 1 1 1 1 1 1 1 1 1 1 1 1 1 1 0 0 0 1 1 1 2 2 1 1 2 3 3 3 3 6 6 5 4 4 4 5 5 5 5 5 5 5
1 1 1 1 1 1 1 1 1 1 2 1 1 1 1 0 1 1 1 1 2 2 2 1 2 2 3 3 5 7 7 7 7 6 5 5 5 5 5 5 6 6 6
Wind_Direction
272 271 267 260 260 260 255 254 249 244 239 236 234 230 228 227 220 219 221 217 218 216 212 214 215 211 208 209 206 205 210 213 225 227 223 209 210 215 208 221 224 224 218
287 281 276 274 267 263 259 259 254 247 242 238 234 231 227 226 221 220 220 217 216 212 209 211 211 206 209 208 204 206 208 209 210 220 211 206 219 215 213 215 218 230 237
300 289 286 284 279 274 272 267 260 252 248 243 233 228 226 225 223 222 219 218 215 211 209 208 206 203 209 205 202 204 205 205 204 207 214 195 207 203 204 209 218 226 229
307 298 290 287 290 289 287 280 269 260 251 247 236 228 223 222 223 221 217 216 212 207 205 205 206 206 208 202 200 200 198 197 194 199 207 196 196 197 201 207 220 225 222
305 302 299 291 294 297 296 292 284 272 260 249 239 229 221 219 218 216 216 216 208 203 203 206 206 201 203 202 195 194 193 195 193 196 202 198 193 192 208 203 219 218 226
301 303 305 298 299 302 300 298 295 287 267 247 237 230 225 222 213 214 217 214 208 203 204 202 197 195 198 198 199 198 198 197 197 199 205 206 208 206 196 192 190 196 225
306 306 307 310 307 304 305 304 305 295 279 263 246 234 226 220 206 206 212 216 213 207 200 196 194 194 193 196 193 193 202 202 205 208 208 212 209 198 189 192 201 215 234
302 303 309 312 309 308 307 305 306 296 279 270 257 246 235 223 207 203 204 211 211 205 200 197 192 194 192 188 190 193 201 202 201 207 210 212 204 188 193 195 182 124 61
302 303 304 306 307 310 307 304 306 294 281 276 257 249 238 218 185 191 197 197 193 201 199 194 191 194 182 179 183 184 187 184 138 145 145 138 134 150 155 139 146 147 180
296 297 300 303 303 303 306 308 306 289 284 286 277 261 233 203 167 178 187 182 188 194 190 189 187 187 179 178 186 184 187 179 154 135 124 112 119 124 141 170 176 170 159
298 299 303 304 300 298 305 308 303 298 288 283 290 287 244 177 142 144 173 181 179 183 188 186 180 166 173 181 193 193 182 168 161 154 140 126 110 102 93 77 73 157 165
297 297 301 306 307 307 305 306 302 296 276 281 333 350 317 160 139 123 104 174 180 181 189 184 173 163 166 173 179 164 155 153 153 151 146 144 138 123 100 86 72 58 48
294 297 302 307 308 304 303 307 307 304 299 300 336 319 292 20 123 114 116 107 134 176 157 159 163 158 153 155 151 155 158 156 157 155 155 147 131 124 111 95 82 76 63
290 296 299 300 304 308 308 302 296 297 315 329 312 297 285 209 158 122 110 103 97 97 110 129 135 133 132 138 146 148 155 157 160 153 139 127 123 124 124 123 118 105 82
290 293 296 294 298 309 310 303 288 278 288 281 276 270 242 220 204 209 191 173 140 130 118 125 129 125 123 124 122 125 132 138 138 134 134 134 133 129 123 119 119 114 109
287 291 291 291 293 301 305 322 350 311 320 311 312 308 283 244 204 177 145 122 134 151 138 136 140 140 144 144 139 127 136 143 137 135 140 143 145 144 133 119 113 115 115
278 284 286 285 287 295 300 330 352 4 9 7 1 346 326 171 140 133 124 115 139 152 138 141 148 151 151 149 147 142 143 138 135 136 139 143 143 140 135 132 131 124 117
284 287 290 284 283 281 290 311 327 354 348 355 4 2 3 126 116 121 124 114 126 130 139 149 154 150 145 147 148 139 124 127 133 135 136 138 142 139 136 139 144 143 134
286 289 290 291 291 292 307 335 2 22 353 344 349 10 38 104 108 111 120 132 143 142 142 147 147 144 136 133 133 131 129 128 136 138 137 139 141 139 140 144 142 143 135
282 291 295 291 290 306 323 340 353 8 338 330 332 339 1 94 129 126 118 128 138 144 145 146 143 139 137 138 134 132 125 124 129 135 138 138 140 140 142 146 147 146 140
283 285 288 294 296 289 292 283 268 277 310 322 322 332 336 310 148 144 149 147 151 157 151 144 139 139 139 138 139 132 131 133 131 130 131 138 139 137 139 139 136 135 129
282 290 302 301 290 285 288 280 254 265 302 316 329 344 346 11 143 138 158 149 142 143 140 142 143 142 151 155 151 146 143 140 139 138 136 136 137 136 137 135 133 132 133
280 289 311 312 302 302 301 289 262 283 303 313 323 326 324 167 143 137 114 101 109 117 118 128 137 136 130 131 153 157 156 156 154 152 145 140 136 137 139 138 139 138 138
267 273 285 289 286 279 288 288 283 293 299 305 309 312 322 331 121 108 99 116 120 116 119 123 135 145 147 142 133 135 140 142 143 146 145 143 140 136 136 137 138 140 138
260 264 270 276 274 282 292 282 282 293 297 294 296 303 313 317 133 125 120 112 114 114 113 112 123 131 142 145 143 139 140 140 142 138 136 135 138 138 137 140 141 140 136
272 265 266 270 268 268 274 271 275 287 290 291 289 290 290 262 132 113 111 117 117 110 107 102 118 134 146 139 136 139 140 140 138 138 139 137 138 139 139 137 137 135 133